Weather in Sevryukayevo

Russia / Samara Oblast     53°10′34″N   49°29′57″E
temp.,
°C
wind,
m/s
gust,
m/s
humid.,
%
clouds,
%
prec.,
mm/h
press.,
hPa
HPBL,
m
28 february, sun
sun2801:00−13nnw91492100 0.2 1002396
04:00−14nnw91592100 0.4 1004442
07:00−18nnw81595100 0.1 1006359
10:00−17nnw81395100 0.1 1007364
13:00−15nnw71194100 0.1 1009420
16:00−14nnw71192100 0.1 1010443
19:00−16nnw61293100 0.1 1013362
22:00−15nnw51194100 0.1 1015363
1 march, mon
mon101:00−17nnw499795 0.1 1016241
04:00−19nnw4109894 0.1 1018209
07:00−21nnw489997 0.0 1020180
10:00−18nnw589693 0.0 1022271
13:00−15nw469394 0.0 1022333
16:00−13nnw369083 0.0 1023331
19:00−19nw019964 0.0 102220
22:00−18sw229962 0.0 102221
2 march, tue
tue201:00−16sw2310097 0.0 102080
04:00−14ssw499898 0.1 1017206
07:00−12sw61196100 0.1 1013339
10:00−7sw71396100 1.6 1010545
13:00−2sw81397100 1.8 1006683
16:000wsw81399100 3.9 1004717
19:000w51098100 1.1 1003557
22:00−2w399699 1.2 1003243
3 march, wed
wed301:00−6wnw349387 0.1 100366
04:00−8nw239654 0.2 100422
07:00−8nw239654 0.1 100425
10:00−5nw379457 0.1 1006300
13:00−3nw579195 0.1 1006592
16:00−2nnw579297 0.2 1007681
19:00−6nnw379294 0.1 1008137
22:00−10nnw349248 0.1 101053
4 march, thu
thu401:00−11nw33932 0.0 101140
04:00−12wnw34952 0.0 101176
07:00−14wsw33963 0.0 101132
10:00−9sw5109427 0.0 1010277
13:00−5sw8139488 0.1 1008696
16:00−2sw9159394 0.4 1005944
19:00−1sw91688100 0.1 1002967
22:00−1wsw91688100 0.1 10021071